|   |  | Asteroid (274084) Baldone (2008 AU101)
					
					
					
					
						
					
					
						
							(Preview) 
						
							
								New minor planet discovered at Baldone Observatory in Latvia  A new minor planet has been discovered in Latvia for the first time at the Baldone Observatory using a Schmidt Telescope, LETA was informed by the University of Latvia's press centre. [url=http://www.baltic-course.com/eng/Technol... | Blobrana | 1 |  |  | 
		
			
			
				
				
					|   |  | Asteroid 2011 YW1
					
					
					
					
						
					
					
						
							(Preview) 
						
							
								Orbital elements:
2011 YW1                                                 Earth MOID = 0.2385 AU
Epoch 2012 Mar. 14.0 TT = JDT 2456000.5                 MPC
M  31.51277              (2000.0)            P               Q
n   0.40638353     Peri.    8.79305     -0.10381376     -0.81372578
a   1.8051445      Node    88.75100     +0.87420719     -0.34887750
e   0.3248667      Incl.   34.89253     +0.47432531     +0.46490305
P   2.43           H   19.7           G   0.1... | Blobrana | 0 |  |  | 
		
			
			
				
				
					|   |  | Asteroid 2011 YC
					
					
					
					
						
					
					
						
							(Preview) 
						
							
								Orbital elements:
2011 YC                                                  Earth MOID = 0.0733 AU
Epoch 2012 Mar. 14.0 TT = JDT 2456000.5                 MPC
M  41.11950              (2000.0)            P               Q
n   0.45096441     Peri.  357.81412     +0.12019321     -0.96308798
a   1.6841258      Node    85.21758     +0.91445863     +0.01296804
e   0.3725690      Incl.   13.98718     +0.38641818     +0.26887426
P   2.19           H   24.4           G   0.... | Blobrana | 1 |  |  | 
		
			
			
				
				
					|   |  | Asteroid 2011 YQ1
					
					
					
					
						
					
					
						
							(Preview) 
						
							
								Orbital elements:
2011 YQ1                                                 Earth MOID = 0.0025 AU
Epoch 2012 Mar. 14.0 TT = JDT 2456000.5                 MPC
M  45.67469              (2000.0)            P               Q
n   0.36620515     Peri.  127.65977     +0.82442311     -0.56518408
a   1.9348757      Node   266.77430     +0.50938770     +0.76398038
e   0.5497235      Incl.    1.71562     +0.24667937     +0.31128915
P   2.69           H   25.6           G   0... | Blobrana | 1 |  |  | 
		
			
			
				
				
					|   |  | Asteroid 2011 XS2
					
					
					
					
						
					
					
						
							(Preview) 
						
							
								Orbital elements:
2011 XS2                                                 Earth MOID = 0.0855 AU
Epoch 2012 Mar. 14.0 TT = JDT 2456000.5                 MPC
M  70.09778              (2000.0)            P               Q
n   0.45727845     Peri.   99.47618     +0.72523831     +0.57821339
a   1.6685871      Node   226.39168     -0.62774379     +0.77829357
e   0.7441041      Incl.   31.07742     +0.28278460     +0.24480276
P   2.16           H   18.2           G   0... | Blobrana | 0 |  |  | 
		
			
			
				
				
					|   |  | Asteroid 2011 MC2
					
					
					
					
						
					
					
						
							(Preview) 
						
							
								Orbital elements:
2011 MC2
Epoch 2011 Aug. 27.0 TT = JDT 2455800.5                 MPC
M   6.87074              (2000.0)            P               Q
n   0.14327548     Peri.    9.79433     +0.88342905     +0.46026119
a   3.6170524      Node   322.39692     -0.43905170     +0.74764783
e   0.6365185      Incl.    8.27513     -0.16366649     +0.47872994
P   6.88           H   18.2           G   0.15           U   9 MPEC 2011 - M43 | Blobrana | 2 |  |  | 
		
			
			
				
				
					|   |  | Asteroid 2011 XC
					
					
					
					
						
					
					
						
							(Preview) 
						
							
								Orbital elements:
2011 XC                                                  Earth MOID = 0.1707 AU
Epoch 2011 Aug. 27.0 TT = JDT 2455800.5                 MPC
M 235.36513              (2000.0)            P               Q
n   0.69815621     Peri.   63.75252     -0.69820262     -0.62011879
a   1.2584452      Node    75.67628     +0.45062331     -0.76895847
e   0.1361284      Incl.   21.66630     +0.55628386     -0.15542056
P   1.41           H   20.8           G   0.... | Blobrana | 2 |  |  | 
		
			
			
				
				
					|   |  | TOV628
					
					
					
					
						
					
					
						
							(Preview) 
						
							
								Bulgarian team finds new asteroid  A new asteroid has been discovered by students at the Varna Astronomy Club in the Bulgarian Black Sea city. The discovery was made while the team was working on a project that is supported by Nasa, Bulgarian National Television said. [url=http://www.sofiaecho.c...   | Blobrana | 0 |  |  | 
		
			
			
				
				
					|   |  | Asteroid 2011 XC2
					
					
					
					
						
					
					
						
							(Preview) 
						
							
								Orbital elements:
2011 XC2                                                 Earth MOID = 0.0006 AU
Epoch 2012 Mar. 14.0 TT = JDT 2456000.5                 MPC
M  47.18032              (2000.0)            P               Q
n   0.34120580     Peri.  306.65895     +0.85960875     -0.22874462
a   2.0282669      Node    70.74761     +0.45920700     +0.73797013
e   0.5869906      Incl.   28.94405     -0.22405742     +0.63488265
P   2.89           H   22.6           G   0...                   | Blobrana | 0 |  |  | 
		
			
			
				
				
					|   |  | Asteroid (192642) 1999 RD32
					
					
					
					
						
					
					
						
							(Preview) 
						
							
								The 1400 - 3200 metre wide asteroid 1999 RD32 will make a close pass (57.9 lunar distances, 0.1488 AU), travelling at 18.80 km/second, to the Earth-Moon system on the 14th March, 2012 @ 10:40 UT ±00:01.   See more  The Lunar Distan...               | Blobrana | 0 |  |  | 
		
			
			
				
				
					|   |  | Asteroid 2004 JN1
					
					
					
					
						
					
					
						
							(Preview) 
						
							
								The 54 - 120 metre wide asteroid 2004 JN1 will make a close pass (57.5 lunar distances, 0.1476 AU), travelling at 8.97 km/second, to the Earth-Moon system on the 1st December, 2011 @ 05:13 UT ±06:11.   See more  The Lunar Dista...               | Blobrana | 2 |  |  | 
		
			
			
				
				
					|   |  | Asteroid 2011 WQ46
					
					
					
					
						
					
					
						
							(Preview) 
						
							
								Orbital elements:
2011 WQ46                                                Earth MOID = 0.0636 AU
Epoch 2011 Aug. 27.0 TT = JDT 2455800.5                 MPC
M 304.66268              (2000.0)            P               Q
n   0.47068997     Peri.  236.11569     -0.10138453     -0.99477770
a   1.6367390      Node   219.70839     +0.91872952     -0.08908277
e   0.3606171      Incl.    1.05547     +0.38165069     -0.04981545
P   2.09           H   24.1... | Blobrana | 2 |  |  | 
		
			
			
				
				
					|   |  | Asteroid 2010 SV3
					
					
					
					
						
					
					
						
							(Preview) 
						
							
								Orbital elements:
2010 SV3                                                 Earth MOID = 0.0564 AU
Epoch 2010 July 23.0 TT = JDT 2455400.5                 MPC
M  17.63239              (2000.0)            P               Q
n   0.52944054     Peri.  224.12695     -0.37006173     +0.92793642
a   1.5132985      Node    24.25780     -0.81946419     -0.30343874
e   0.5154403      Incl.    6.23082     -0.43764457     -0.21646922
P   1.86           H   20.5           G   0....                     | Blobrana | 0 |  |  | 
		
			
			
				
				
					|   |  | Asteroid 2011 UU106
					
					
					
					
						
					
					
						
							(Preview) 
						
							
								Orbital elements:
2011 UU106                                               Earth MOID = 0.0776 AU
Epoch 2011 Aug. 27.0 TT = JDT 2455800.5                 MPC
M 292.43825              (2000.0)            P               Q
n   0.39987581     Peri.  241.65883     -0.68000379     -0.71465484
a   1.8246768      Node   252.17072     +0.71845855     -0.60485051
e   0.4788903      Incl.    9.91396     +0.14632892     -0.35131797
P   2.46           H   18.... | Blobrana | 1 |  |  | 
		
			
			
				
				
					|   |  | Asteroid 2004 YU5
					
					
					
					
						
					
					
						
							(Preview) 
						
							
								Orbital elements:
2004 YU5                                                 Earth MOID = 0.3297 AU
Epoch 2011 Aug. 27.0 TT = JDT 2455800.5                 MPC
M 324.74238              (2000.0)            P               Q
n   0.28124794     Peri.  141.43710     +0.02771596     -0.94065407
a   2.3071534      Node   304.38195     +0.78504600     +0.22994821
e   0.4545527      Incl.   24.19447     +0.61881709     -0.24958715
P   3.50           H   18.8... | Blobrana | 0 |  |  |